Location: MAS Eagle Lake Observatory
(44.8103°N, 93.9397°W)
Time: 03:20:37
(UTC-05:00)

ISS - Visible Passes

Search period start: 22 October 2017 00:00
Search period end: 01 November 2017 00:00
Orbit: 401 x 408 km, 51.6° (Epoch: 22 October)

Date Brightness Start Highest point End Pass type
(mag) Time Alt. Az. Time Alt. Az. Time Alt. Az.
27 Oct -0.4 07:05:39 10° SSE 07:06:41 11° SE 07:07:43 10° ESE visible
29 Oct -1.5 06:55:17 10° SSW 06:57:58 24° SE 07:00:41 10° E visible
30 Oct -0.9 06:04:00 10° SSE 06:05:44 14° SE 06:07:28 10° E visible
31 Oct -3.1 06:46:10 10° SW 06:49:21 53° SE 06:52:32 10° ENE visible
